FW4761 Weather Reports


time (UTC)temp
C
wind
direction
speed
KPH
gust
KPH
rain 1hr
cm
rain 24hr
cm
rain mn
cm
humidity
%
barometer
mb
20260506165617 14 39 12.9 27.4 0.00 0.00 0.00 68 979.2
20260506165118 14 355 12.9 22.5 0.00 0.00 0.00 68 979.4
20260506164617 14 57 14.5 25.7 0.00 0.00 0.00 68 979.3
20260506164110 14 14 12.9 25.7 0.00 0.00 0.00 69 979.3
20260506163604 13 51 11.3 24.1 0.00 0.00 0.00 70 979.5
20260506163058 13 49 14.5 24.1 0.00 0.00 0.00 70 979.2
20260506162047 13 51 11.3 22.5 0.00 0.00 0.00 71 979.4
20260506161540 13 0 8.0 19.3 0.00 0.00 0.00 71 979.8
20260506160023 12 44 6.4 16.1 0.00 0.00 0.00 72 980.1
20260506155517 12 342 3.2 11.3 0.00 0.00 0.00 72 980.2
20260506154504 12 82 1.6 11.3 0.00 0.00 0.00 71 980.7
20260506153958 12 55 3.2 12.9 0.00 0.00 0.00 72 980.7
20260506152947 12 15 9.7 20.9 0.00 0.00 0.00 72 979.9
20260506152440 12 36 9.7 19.3 0.00 0.00 0.00 72 979.8
20260506151934 12 355 8.0 19.3 0.00 0.00 0.00 72 979.9
20260506151427 12 16 8.0 16.1 0.00 0.00 0.00 73 979.9
20260506150920 12 66 9.7 19.3 0.00 0.00 0.00 73 979.6
20260506150414 12 41 9.7 20.9 0.00 0.00 0.00 73 979.7
20260506145908 12 0 6.4 20.9 0.00 0.00 0.00 74 979.7
20260506144856 11 42 9.7 22.5 0.00 0.00 0.00 74 979.8
20260506144351 11 344 8.0 16.1 0.00 0.00 0.00 75 979.7
20260506143845 11 22 8.0 16.1 0.00 0.00 0.00 75 979.8
20260506143338 11 12 9.7 20.9 0.00 0.00 0.00 76 979.5
20260506142832 11 9 9.7 20.9 0.00 0.00 0.00 76 979.5
20260506142326 11 9 6.4 17.7 0.00 0.00 0.00 76 979.6
20260506141822 11 44 6.4 14.5 0.00 0.00 0.00 75 979.6
20260506141315 11 53 11.3 22.5 0.00 0.00 0.00 74 979.4
20260506135756 11 51 9.7 25.7 0.00 0.00 0.00 75 979.0
20260506135250 11 32 9.7 19.3 0.00 0.00 0.00 75 979.0
20260506133733 11 26 8.0 19.3 0.00 0.00 0.00 75 978.8
20260506133227 11 52 9.7 17.7 0.00 0.00 0.00 75 978.7
20260506132721 11 9 9.7 19.3 0.00 0.00 0.00 75 978.7
20260506132214 11 53 9.7 19.3 0.00 0.00 0.00 76 978.6
20260506131708 11 69 9.7 22.5 0.00 0.00 0.00 76 978.6
20260506131202 11 57 12.9 22.5 0.00 0.00 0.00 76 978.4
20260506130657 11 29 11.3 22.5 0.00 0.00 0.00 76 978.4
20260506130150 11 74 8.0 17.7 0.00 0.00 0.00 77 978.4
20260506125645 11 34 8.0 16.1 0.00 0.00 0.00 77 978.3
20260506125139 11 54 6.4 16.1 0.00 0.00 0.00 77 978.3
20260506124633 11 0 6.4 16.1 0.00 0.00 0.00 77 978.0
20260506123621 10 32 9.7 20.9 0.00 0.00 0.00 78 977.9
20260506123115 10 27 8.0 17.7 0.00 0.00 0.00 78 977.7
20260506122103 10 32 9.7 24.1 0.00 0.00 0.00 79 977.9
20260506121558 10 0 11.3 22.5 0.00 0.00 0.00 80 977.9
20260506120545 10 325 9.7 29.0 0.00 0.00 0.00 80 977.9
20260506120039 10 0 9.7 17.7 0.00 0.00 0.00 80 977.9
20260506115533 10 14 12.9 22.5 0.00 0.00 0.00 80 977.8
20260506115027 10 351 12.9 22.5 0.00 0.00 0.00 81 977.6
20260506114015 10 23 11.3 22.5 0.00 0.00 0.00 81 977.6
20260506113003 10 0 11.3 22.5 0.00 0.00 0.00 81 977.4
20260506112457 10 13 12.9 22.5 0.00 0.00 0.00 81 977.4
20260506111951 10 32 14.5 22.5 0.00 0.00 0.00 81 977.2
20260506111444 10 355 12.9 22.5 0.00 0.00 0.00 81 977.2
20260506110938 10 0 11.3 19.3 0.00 0.00 0.00 81 977.1
20260506110432 10 11 11.3 20.9 0.00 0.00 0.00 80 977.2
20260506105926 10 19 9.7 20.9 0.00 0.00 0.00 80 977.1
20260506105420 10 20 12.9 24.1 0.00 0.00 0.00 80 977.1
20260506104915 10 32 17.7 27.4 0.00 0.00 0.00 80 977.1
20260506104409 10 0 16.1 27.4 0.00 0.00 0.00 79 977.1
20260506103356 10 13 14.5 29.0 0.00 0.00 0.00 79 977.0
20260506102850 10 20 14.5 29.0 0.00 0.00 0.00 79 976.9
20260506102344 10 0 12.9 27.4 0.00 0.00 0.00 79 977.1
20260506101842 11 355 12.9 24.1 0.00 0.00 0.00 78 977.2
20260506101343 11 341 11.3 20.9 0.00 0.00 0.00 78 976.9
20260506100840 11 315 12.9 24.1 0.00 0.00 0.00 77 976.7
20260506100341 11 17 12.9 24.1 0.00 0.00 0.00 77 976.6
20260506095840 11 0 12.9 22.5 0.00 0.00 0.00 77 976.6
20260506095341 11 342 14.5 24.1 0.00 0.00 0.00 77 976.6
20260506094841 11 19 14.5 29.0 0.00 0.00 0.00 77 976.6
20260506094341 11 19 16.1 29.0 0.00 0.00 0.00 77 976.5
20260506093841 11 17 17.7 29.0 0.00 0.00 0.00 76 976.3
20260506093341 11 341 16.1 27.4 0.00 0.00 0.00 76 976.2
20260506092840 11 22 12.9 27.4 0.00 0.00 0.00 76 976.1
20260506092336 11 13 11.3 19.3 0.00 0.00 0.00 76 976.0
20260506091837 11 0 11.3 19.3 0.00 0.00 0.00 75 975.9
20260506091336 11 347 9.7 17.7 0.00 0.00 0.00 75 975.8
20260506090836 11 13 11.3 19.3 0.00 0.00 0.00 75 975.7
20260506085837 11 355 9.7 20.9 0.00 0.00 0.00 75 975.6
20260506085336 11 350 8.0 17.7 0.00 0.00 0.00 75 975.7
20260506084836 11 355 9.7 19.3 0.00 0.00 0.00 75 975.5
20260506084337 11 355 11.3 19.3 0.00 0.00 0.00 75 975.4
20260506083832 11 0 9.7 20.9 0.00 0.00 0.00 74 975.5
20260506083332 11 15 8.0 20.9 0.00 0.00 0.00 74 975.5
20260506082833 11 27 9.7 20.9 0.00 0.00 0.00 74 975.6
20260506082333 11 30 11.3 20.9 0.00 0.00 0.00 74 975.5
20260506081833 11 36 11.3 24.1 0.00 0.00 0.00 74 975.5
20260506080832 12 346 11.3 19.3 0.00 0.00 0.00 74 975.5
20260506080336 12 0 11.3 20.9 0.00 0.00 0.00 74 975.4
20260506073314 12 21 9.7 20.9 0.00 0.00 0.00 74 975.3
20260506072808 12 17 9.7 20.9 0.00 0.00 0.00 74 975.3
20260506072305 12 355 11.3 22.5 0.00 0.00 0.00 74 975.4
20260506071756 12 47 12.9 22.5 0.00 0.00 0.00 74 975.3
20260506070238 12 15 9.7 16.1 0.00 0.00 0.00 74 975.0
20260506062150 12 27 9.7 17.7 0.00 0.00 0.00 75 975.2
20260506061644 12 9 9.7 19.3 0.00 0.00 0.00 75 975.2
20260506061139 12 32 9.7 19.3 0.00 0.00 0.00 75 975.1
20260506060631 12 329 8.0 17.7 0.00 0.00 0.00 76 975.2
20260506060126 12 48 6.4 17.7 0.00 0.00 0.00 76 975.2
20260506051026 13 36 9.7 19.3 0.00 0.00 0.00 75 975.2
20260506050519 13 350 9.7 19.3 0.00 0.00 0.00 75 975.3
20260506045002 13 30 11.3 24.1 0.00 0.00 0.00 75 975.3
20260506043951 13 15 12.9 25.7 0.00 0.00 0.00 75 975.3
20260506043445 13 22 9.7 24.1 0.00 0.00 0.00 75 975.3
20260506042939 13 13 11.3 20.9 0.00 0.00 0.00 75 975.4
20260506042433 13 355 12.9 27.4 0.00 0.00 0.00 76 975.4
20260506041926 13 343 12.9 27.4 0.00 0.00 0.00 76 975.2
20260506041420 13 14 11.3 25.7 0.00 0.00 0.00 76 975.3
20260506040914 13 59 12.9 24.1 0.00 0.00 0.00 76 975.2
20260506040409 13 55 14.5 24.1 0.00 0.00 0.00 76 975.2
20260506035903 13 0 12.9 22.5 0.00 0.00 0.00 76 975.2
20260506035357 13 62 12.9 24.1 0.00 0.00 0.00 76 975.0
20260506034855 13 63 11.3 24.1 0.00 0.00 0.00 77 975.0
20260506034355 13 45 12.9 24.1 0.00 0.00 0.00 77 975.1
20260506033853 13 107 16.1 24.1 0.00 0.00 0.00 77 975.1
20260506033353 13 0 14.5 27.4 0.00 0.00 0.00 77 975.1
20260506032852 13 65 12.9 27.4 0.00 0.00 0.00 78 974.9
20260506031854 14 0 14.5 20.9 0.00 0.00 0.00 78 974.9
20260506031353 14 349 11.3 20.9 0.00 0.00 0.00 79 974.8
20260506030854 14 67 8.0 19.3 0.00 0.00 0.00 79 974.9
20260506030352 14 340 6.4 17.7 0.00 0.00 0.00 79 974.6
20260506025853 14 355 6.4 14.5 0.00 0.00 0.00 78 974.5
20260506025353 14 76 4.8 14.5 0.00 0.00 0.00 78 974.6
20260506024852 14 90 4.8 16.1 0.00 0.00 0.00 78 974.5
20260506023853 14 0 8.0 19.3 0.00 0.00 0.00 78 974.5
20260506022848 15 0 8.0 19.3 0.00 0.00 0.00 78 974.3
20260506022352 15 355 9.7 19.3 0.00 0.00 0.00 78 974.0
20260506021846 15 47 11.3 20.9 0.00 0.00 0.00 78 973.6
20260506021341 15 49 12.9 20.9 0.00 0.00 0.00 78 973.0
20260506020328 15 355 14.5 24.1 0.00 0.00 0.00 77 972.5
20260506015822 15 64 16.1 24.1 0.00 0.00 0.00 77 972.3
20260506015316 15 93 17.7 25.7 0.00 0.00 0.00 77 972.3
20260506014810 15 0 16.1 27.4 0.00 0.00 0.00 77 972.2
20260506014304 15 0 16.1 30.6 0.00 0.00 0.00 77 972.1
20260506013759 16 0 16.1 30.6 0.00 0.00 0.00 76 972.0
20260506013252 16 0 16.1 27.4 0.00 0.00 0.00 76 972.0
20260506012245 16 71 16.1 30.6 0.00 0.00 0.00 75 971.7
20260506011744 16 67 14.5 25.7 0.00 0.00 0.00 75 971.6
20260506011245 16 55 14.5 25.7 0.00 0.00 0.00 75 971.5
20260506010745 17 51 14.5 25.7 0.00 0.00 0.00 74 971.5
20260506010244 17 0 17.7 29.0 0.00 0.00 0.00 74 971.6
20260506005244 17 71 17.7 25.7 0.00 0.00 0.00 73 971.1
20260506004745 18 0 14.5 25.7 0.00 0.00 0.00 73 971.3
20260506004245 18 0 11.3 24.1 0.00 0.00 0.00 73 971.4
20260506003740 18 0 11.3 20.9 0.00 0.00 0.00 73 971.5
20260506003241 18 0 11.3 22.5 0.00 0.00 0.00 73 971.3
20260506002740 18 0 11.3 22.5 0.00 0.00 0.00 72 971.3
20260506002240 18 0 11.3 22.5 0.00 0.00 0.00 72 971.1
20260506001740 18 0 12.9 24.1 0.00 0.00 0.00 72 971.1
20260506001240 18 348 12.9 25.7 0.00 0.00 0.00 72 971.3
20260506000740 18 0 12.9 25.7 0.00 0.00 0.00 72 971.0
20260506000240 19 0 11.3 25.7 0.00 0.00 0.00 72 971.3
20260505235740 19 0 9.7 22.5 0.00 0.00 0.00 72 971.1
20260505235238 19 0 12.9 22.5 0.00 0.00 0.00 71 971.0
20260505234739 19 0 14.5 25.7 0.00 0.00 0.00 71 970.8
20260505234238 19 0 14.5 25.7 0.00 0.00 0.00 71 971.0
20260505233738 19 330 14.5 25.7 0.00 0.00 0.00 71 971.1
20260505233239 19 0 14.5 29.0 0.00 0.00 0.00 70 971.2
20260505232239 19 0 14.5 25.7 0.00 0.00 0.00 70 971.0
20260505231739 20 336 14.5 24.1 0.00 0.00 0.00 69 970.8
20260505231238 20 0 14.5 24.1 0.00 0.00 0.00 70 970.9
20260505230742 20 0 16.1 33.8 0.00 0.00 0.00 69 970.7
20260505230242 21 0 16.1 33.8 0.00 0.00 0.00 68 970.8
20260505225743 21 315 14.5 33.8 0.00 0.00 0.00 68 970.8
20260505225242 21 347 11.3 25.7 0.00 0.00 0.00 68 970.7
20260505224737 21 307 11.3 25.7 0.00 0.00 0.00 67 970.7
20260505224236 21 328 9.7 25.7 0.00 0.00 0.00 68 970.7
20260505223736 21 329 12.9 29.0 0.00 0.00 0.00 67 970.7
20260505223236 22 319 14.5 30.6 0.00 0.00 0.00 67 970.8
20260505222736 22 327 12.9 30.6 0.00 0.00 0.00 66 970.7
20260505222237 22 305 14.5 29.0 0.00 0.00 0.00 68 970.5
20260505221737 22 344 14.5 29.0 0.00 0.00 0.00 67 970.4
20260505221236 22 338 11.3 25.7 0.00 0.00 0.00 66 970.3
20260505215736 23 355 14.5 27.4 0.00 0.00 0.00 65 970.2
20260505215237 23 355 14.5 27.4 0.00 0.00 0.00 66 970.1
20260505214736 23 316 14.5 25.7 0.00 0.00 0.00 66 970.0
20260505214236 23 0 14.5 25.7 0.00 0.00 0.00 65 970.1
20260505213736 23 311 14.5 25.7 0.00 0.00 0.00 65 970.1
20260505213236 24 309 12.9 24.1 0.00 0.00 0.00 63 970.0
20260505212729 25 344 12.9 24.1 0.00 0.00 0.00 64 969.9
20260505212224 24 298 12.9 24.1 0.00 0.00 0.00 64 969.8
20260505211212 24 341 11.3 22.5 0.00 0.00 0.00 63 970.0
20260505210706 25 336 11.3 24.1 0.00 0.00 0.00 63 970.1
20260505210159 25 296 11.3 24.1 0.00 0.00 0.00 61 970.2
20260505205653 26 312 12.9 29.0 0.00 0.00 0.00 60 970.1
20260505205147 26 309 14.5 29.0 0.00 0.00 0.00 60 970.2
20260505204641 26 305 14.5 27.4 0.00 0.00 0.00 60 970.2
20260505204135 26 282 14.5 27.4 0.00 0.00 0.00 60 970.3
20260505203630 26 315 14.5 27.4 0.00 0.00 0.00 61 970.2
20260505203124 26 308 14.5 27.4 0.00 0.00 0.00 60 970.3
20260505202618 27 300 14.5 22.5 0.00 0.00 0.00 60 970.0
20260505202112 27 333 16.1 27.4 0.00 0.00 0.00 59 970.0
20260505201606 27 309 16.1 27.4 0.00 0.00 0.00 59 970.0
20260505200554 27 289 17.7 30.6 0.00 0.00 0.00 58 970.0
20260505200047 28 327 17.7 30.6 0.00 0.00 0.00 56 969.9
20260505195541 28 271 16.1 27.4 0.00 0.00 0.00 55 969.8
20260505195036 28 348 16.1 27.4 0.00 0.00 0.00 55 969.7
20260505194530 28 279 14.5 27.4 0.00 0.00 0.00 54 969.7
20260505194024 27 326 14.5 27.4 0.00 0.00 0.00 53 969.7
20260505193518 27 278 16.1 27.4 0.00 0.00 0.00 51 969.7
20260505193012 27 305 12.9 27.4 0.00 0.00 0.00 48 969.8
20260505192505 27 294 12.9 25.7 0.00 0.00 0.00 46 969.9
20260505191959 27 270 12.9 24.1 0.00 0.00 0.00 46 969.8
20260505191454 27 296 14.5 30.6 0.00 0.00 0.00 47 969.6
20260505190443 28 281 14.5 27.4 0.00 0.00 0.00 45 969.5
20260505185936 28 292 16.1 27.4 0.00 0.00 0.00 51 969.5
20260505185430 28 241 16.1 30.6 0.00 0.00 0.00 59 969.3
20260505184928 28 242 14.5 30.6 0.00 0.00 0.00 59 969.2
20260505184428 28 205 11.3 29.0 0.00 0.00 0.00 60 969.1
20260505183926 28 241 11.3 27.4 0.00 0.00 0.00 59 969.2
20260505183427 28 231 14.5 27.4 0.00 0.00 0.00 60 969.1
20260505182926 28 251 14.5 29.0 0.00 0.00 0.00 59 969.1
20260505182424 28 243 12.9 29.0 0.00 0.00 0.00 59 969.2
20260505181924 28 213 14.5 25.7 0.00 0.00 0.00 58 969.3
20260505181424 28 236 14.5 25.7 0.00 0.00 0.00 58 969.1
20260505180420 28 223 11.3 24.1 0.00 0.00 0.00 61 969.1
20260505175420 27 208 11.3 24.1 0.00 0.00 0.00 62 969.1
20260505173921 28 238 11.3 24.1 0.00 0.00 0.00 64 969.0
20260505173418 27 223 9.7 17.7 0.00 0.00 0.00 65 969.1
20260505172918 27 198 11.3 22.5 0.00 0.00 0.00 66 969.1
20260505172415 27 203 11.3 27.4 0.00 0.00 0.00 66 969.1
20260505171916 27 228 12.9 27.4 0.00 0.00 0.00 66 968.9
20260505171410 26 222 14.5 30.6 0.00 0.00 0.00 67 968.9
20260505170905 26 202 14.5 30.6 0.00 0.00 0.00 68 969.1
20260505170406 26 207 12.9 27.4 0.00 0.00 0.00 67 968.9
20260505165905 26 217 11.3 27.4 0.00 0.00 0.00 68 968.7